{"data":{"norad_id":68924,"epoch":"2026-09-19T05:52:38.222112Z","epoch_age_seconds":123909,"freshness":"FRESH","line1":"1 68924U 26098F   26262.24488683  .00002216  00000+0  31957-3 0  9993","line2":"2 68924  51.9010 357.1614 0000445  96.4855 263.6158 14.79932190 21485","mean_motion":14.7993219,"eccentricity":4.45e-5,"inclination_deg":51.901,"raan_deg":357.1614,"arg_perigee_deg":96.4855,"mean_anomaly_deg":263.6158,"bstar":0.00031957,"rev_number":2148,"period_min":97.301755427051,"perigee_km":629.22634459966,"apogee_km":629.85002769123,"semimajor_km":7007.6751861454,"source":"CELESTRAK","updated_at":"2026-09-20T09:00:24.553742Z"}}